Change the Weather History Date:

Tuesday, February 25, 2014

  Actual Average Record
Temperature  
Mean Temperature 45 °F 38 °F  
Max Temperature 60 °F 50 °F 69 °F (1904)
Min Temperature 29 °F 27 °F 4 °F (1974)
Degree Days  
Heating Degree Days 20 27  
Month to date heating degree days 764 776  
Since 1 July heating degree days 4873 4302  
Cooling Degree Days 0 0  
Month to date cooling degree days 0 0  
Year to date cooling degree days 0 0  
Moisture  
Dew Point 23 °F    
Average Humidity 45    
Maximum Humidity 69    
Minimum Humidity 20    
Precipitation  
Precipitation 0.00 in 0.02 in 0.27 in (1941)
Month to date precipitation 0.61 0.47  
Year to date precipitation 1.28 1.05  
Snow  
Snow 0.00 in 0.10 in 2.70 in (1962)
Month to date snowfall 2.6 2.9  
Since 1 July snowfall 25.7 15.2  
Snow Depth 0.00 in    
Sea Level Pressure  
Sea Level Pressure 29.96 in    
Wind  
Wind Speed 5 mph (ENE)    
Max Wind Speed 13 mph    
Max Gust Speed 15 mph    
Visibility 10 miles    
Events      
T = Trace of Precipitation, MM = Missing Value Source: NWS Daily Summary

Daily Weather History Graph

Daily Weather History Graph

Search for Another Location

Airport or City:

Trip Planner

Search our weather history database for the weather conditions in past years. The results will help you decide how hot, cold, wet, or windy it might be!

Date:

Astronomy

Feb. 25, 2014 Rise Set
Actual Time 6:52 AM MST 6:02 PM MST
Civil Twilight 6:25 AM MST 6:29 PM MST
Nautical Twilight 5:54 AM MST 7:00 PM MST
Astronomical Twilight 5:23 AM MST 7:31 PM MST
Moon 3:48 AM MST (2/25) 2:12 PM MST (2/25)
Length of Visible Light 12h 04m
Length of Day
11h 10m
Waning Crescent, 17% of the Moon is Illuminated
Feb 25
Waning Crescent
Mar 1
New
Mar 8
First Quarter
Mar 16
Full
Mar 23
Last Quarter

Hourly Weather History & Observations

Time (MST) Temp. Windchill Dew Point Humidity Pressure Visibility Wind Dir Wind Speed Gust Speed Precip Events Conditions
12:53 AM 34.0 °F 26.6 °F 24.1 °F 67% 30.01 in 10.0 mi East 9.2 mph - N/A   Clear
1:53 AM 34.0 °F 27.2 °F 23.0 °F 64% 30.00 in 10.0 mi East 8.1 mph - N/A   Clear
2:53 AM 35.1 °F 27.9 °F 21.9 °F 59% 29.99 in 10.0 mi SE 9.2 mph - N/A   Clear
3:53 AM 32.0 °F 28.7 °F 21.9 °F 66% 29.99 in 10.0 mi East 3.5 mph - N/A   Clear
4:53 AM 33.1 °F 26.1 °F 21.9 °F 64% 29.99 in 10.0 mi ESE 8.1 mph - N/A   Clear
5:53 AM 30.9 °F 24.3 °F 21.9 °F 69% 30.01 in 10.0 mi ESE 6.9 mph - N/A   Clear
6:53 AM 30.0 °F 24.1 °F 21.0 °F 69% 30.06 in 10.0 mi East 5.8 mph - N/A   Scattered Clouds
7:53 AM 34.0 °F 28.0 °F 19.9 °F 56% 30.07 in 10.0 mi SSE 6.9 mph - N/A   Clear
8:53 AM 37.9 °F - 19.9 °F 48% 30.04 in 10.0 mi Calm Calm - N/A   Clear
9:53 AM 44.1 °F - 21.0 °F 40% 30.03 in 10.0 mi Calm Calm - N/A   Clear
10:53 AM 48.0 °F - 21.0 °F 34% 30.02 in 10.0 mi Calm Calm - N/A   Clear
11:53 AM 52.0 °F - 19.9 °F 28% 29.97 in 10.0 mi Calm Calm - N/A   Clear
12:53 PM 55.0 °F - 17.1 °F 23% 29.93 in 10.0 mi WNW 5.8 mph - N/A   Clear
1:53 PM 55.9 °F - 21.0 °F 26% 29.90 in 10.0 mi Variable 3.5 mph - N/A   Clear
2:53 PM 57.9 °F - 21.0 °F 24% 29.87 in 10.0 mi North 4.6 mph - N/A   Clear
3:53 PM 60.1 °F - 19.9 °F 21% 29.87 in 10.0 mi NNE 8.1 mph - N/A   Clear
4:53 PM 59.0 °F - 19.9 °F 22% 29.86 in 10.0 mi NE 5.8 mph - N/A   Clear
5:53 PM 55.0 °F - 26.1 °F 33% 29.87 in 10.0 mi East 3.5 mph - N/A   Clear
6:53 PM 48.9 °F - 26.1 °F 41% 29.90 in 10.0 mi ENE 5.8 mph - N/A   Scattered Clouds
7:53 PM 43.0 °F - 28.9 °F 58% 29.91 in 10.0 mi Calm Calm - N/A   Mostly Cloudy
8:53 PM 44.1 °F - 28.0 °F 53% 29.91 in 10.0 mi Calm Calm - N/A   Overcast
9:53 PM 39.9 °F 36.7 °F 28.0 °F 63% 29.93 in 10.0 mi East 4.6 mph - N/A   Partly Cloudy
10:53 PM 39.9 °F 36.7 °F 26.1 °F 58% 29.93 in 10.0 mi NNE 4.6 mph - N/A   Clear
11:53 PM 45.0 °F 41.8 °F 26.1 °F 48% 29.92 in 10.0 mi Variable 5.8 mph - N/A   Clear